"Datum/tijd (MEZT)";"verwachting windsnelheid";"waarneming windsnelheid [m/s]";"verwachting windrichting";"waarneming windrichting [graden]"
2024-04-16 19:00;11.2;11.2;354;359
2024-04-16 19:10;11.2;10.8;295;357
2024-04-16 19:20;11.2;11;237;358
2024-04-16 19:30;11.2;10.8;178;0
2024-04-16 19:40;11.1;10.7;119;360
2024-04-16 19:50;11.1;11;60;359
2024-04-16 20:00;11.1;10.4;2;0
2024-04-16 20:10;11;10.4;2;3
2024-04-16 20:20;10.9;10.8;1;1
2024-04-16 20:30;10.8;10.7;1;360
2024-04-16 20:40;10.6;10.7;1;358
2024-04-16 20:50;10.5;10.6;1;2
2024-04-16 21:00;10.4;10.6;1;357
2024-04-16 21:10;10.3;10.2;60;359
2024-04-16 21:20;10.2;10.2;119;356
2024-04-16 21:30;10.1;9.9;178;357
2024-04-16 21:40;10;9.9;237;358
2024-04-16 21:50;9.9;9.8;297;356
2024-04-16 22:00;9.9;9.6;356;357
2024-04-16 22:10;9.8;9.6;355;359
2024-04-16 22:20;9.7;9;354;358
2024-04-16 22:30;9.7;9.4;353;353
2024-04-16 22:40;9.6;9.1;352;356
2024-04-16 22:50;9.6;8.6;351;353
2024-04-16 23:00;9.5;8.4;350;356
2024-04-16 23:10;9.4;8.4;348;355
2024-04-16 23:20;9.3;8.3;347;354
2024-04-16 23:30;9.2;7.9;345;351
2024-04-16 23:40;9.1;7.6;344;351
2024-04-16 23:50;9;7;342;357
2024-04-17 00:00;8.9;7;341;351
2024-04-17 00:10;8.9;7.1;339;352
2024-04-17 00:20;8.9;6.9;337;345
2024-04-17 00:30;8.9;7;336;347
2024-04-17 00:40;8.9;6.7;334;348
2024-04-17 00:50;8.9;7.6;332;334
2024-04-17 01:00;8.9;8.4;331;328
2024-04-17 01:10;9.1;8.7;332;341
2024-04-17 01:20;9.3;9.6;333;356
2024-04-17 01:30;9.5;7.7;334;359
2024-04-17 01:40;9.7;6.8;335;352
2024-04-17 01:50;9.9;8.6;336;343
2024-04-17 02:00;10.1;7.7;337;345
2024-04-17 02:10;10.1;7.5;338;338
2024-04-17 02:20;10.1;8.2;339;338
2024-04-17 02:30;10.1;8.8;341;341
2024-04-17 02:40;10.1;9.3;342;332
2024-04-17 02:50;10.1;10;343;331
2024-04-17 03:00;10.1;10.2;345;331
2024-04-17 03:10;9.8;10.3;343;337
2024-04-17 03:20;9.6;9.9;342;336
2024-04-17 03:30;9.3;9.2;340;334
2024-04-17 03:40;9;8.7;338;327
2024-04-17 03:50;8.8;8.8;337;321
2024-04-17 04:00;8.5;8.8;335;316
2024-04-17 04:10;8.4;8.7;333;316
2024-04-17 04:20;8.2;9.2;331;319
2024-04-17 04:30;8;9.1;330;319
2024-04-17 04:40;7.9;8.8;328;320
2024-04-17 04:50;7.7;9.4;326;322
2024-04-17 05:00;7.6;9.3;324;322
2024-04-17 05:10;7.8;9.4;324;316
2024-04-17 05:20;8;9.6;323;315
2024-04-17 05:30;8.2;9.6;323;316
2024-04-17 05:40;8.3;9.8;323;322
2024-04-17 05:50;8.5;10.1;322;321
2024-04-17 06:00;8.7;9.9;322;318
2024-04-17 06:10;8.7;9.5;321;314
2024-04-17 06:20;8.6;9.1;321;317
2024-04-17 06:30;8.6;9.2;321;319
2024-04-17 06:40;8.5;8.5;320;320
2024-04-17 06:50;8.5;8.7;320;320
2024-04-17 07:00;8.4;8.5;319;314
2024-04-17 07:10;7.9;8.3;320;311
2024-04-17 07:20;7.4;7.8;321;311
2024-04-17 07:30;7;7.7;322;311
2024-04-17 07:40;6.5;7.2;322;306
2024-04-17 07:50;6;6.9;323;300
2024-04-17 08:00;7.7;8.5;307;326
2024-04-17 08:10;7.5;7.3;309;346
2024-04-17 08:20;7.3;6;310;343
2024-04-17 08:30;7;6.4;311;318
2024-04-17 08:40;6.8;6.3;312;311
2024-04-17 08:50;6.6;5.8;314;315
2024-04-17 09:00;6.4;5.3;315;320
2024-04-17 09:10;6.4;5.1;311;303
2024-04-17 09:20;6.5;6.9;307;265
2024-04-17 09:30;6.5;6;303;266
2024-04-17 09:40;6.5;7.1;299;273
2024-04-17 09:50;6.6;9.3;296;283
2024-04-17 10:00;6.6;11.3;292;282
2024-04-17 10:10;6.5;13.3;296;278
2024-04-17 10:20;6.5;11;300;273
2024-04-17 10:30;6.4;7.2;305;269
2024-04-17 10:40;6.4;6.5;309;279
2024-04-17 10:50;6.3;5.8;313;278
2024-04-17 11:00;6.2;5;318;275
2024-04-17 11:10;6.3;4.5;317;273
2024-04-17 11:20;6.4;3.6;316;265
2024-04-17 11:30;6.5;3.3;315;260
2024-04-17 11:40;6.6;3.2;314;263
2024-04-17 11:50;6.7;3.4;313;257
2024-04-17 12:00;6.8;4.5;312;261
2024-04-17 12:10;6.8;7.7;310;307
2024-04-17 12:20;6.9;5.3;309;313
2024-04-17 12:30;7;2.2;307;296
2024-04-17 12:40;7.1;2;306;313
2024-04-17 12:50;7.1;2;304;311
2024-04-17 13:00;7.2;2.1;302;295
2024-04-17 13:10;7.7;1.1;310;272
2024-04-17 13:20;8.1;0.7;317;344
2024-04-17 13:30;8.6;2.4;324;340
2024-04-17 13:40;9;2.7;331;5
2024-04-17 13:50;7.6;2.1;327;358
2024-04-17 14:00;7.2;2.8;331;348
2024-04-17 14:10;7.5;3.6;333;323
2024-04-17 14:20;7.8;8.6;334;336
2024-04-17 14:30;8.1;5.3;336;337
2024-04-17 14:40;8.4;8.3;338;327
2024-04-17 14:50;8.7;12.3;339;330
2024-04-17 15:00;9;7;341;358
2024-04-17 15:10;8.9;9.6;339;301
2024-04-17 15:20;8.8;8.5;337;296
2024-04-17 15:30;8.7;7.8;335;339
2024-04-17 15:40;8.6;10.3;333;325
2024-04-17 15:50;8.5;10.4;331;335
2024-04-17 16:00;8.4;9.3;329;343
2024-04-17 16:10;8.7;9.8;331;342
2024-04-17 16:20;8.9;11.2;334;342
2024-04-17 16:30;9.1;10.6;336;333
2024-04-17 16:40;9.3;10;339;338
2024-04-17 16:50;9.6;9.4;341;339
2024-04-17 17:00;9.8;8.8;344;343
2024-04-17 17:10;9.1;8.8;341;340
2024-04-17 17:20;8.3;8.7;339;341
2024-04-17 17:30;7.6;8.8;336;339
2024-04-17 17:40;6.9;8.4;334;339
2024-04-17 17:50;6.1;9.9;331;335
2024-04-17 18:00;5.4;10.3;328;333
2024-04-17 18:10;5.9;9.2;329;335
2024-04-17 18:20;6.5;8.8;330;336
2024-04-17 18:30;7;9;331;336
2024-04-17 18:40;7.5;8.3;332;331
2024-04-17 18:50;8;7.5;333;330
2024-04-17 19:00;8.6;7.7;334;336
2024-04-17 19:10;8.5;8.5;334;332
2024-04-17 19:20;8.4;9.5;335;338
2024-04-17 19:30;8.4;9.3;335;345
2024-04-17 19:40;8.3;8.4;336;345
2024-04-17 19:50;7.4;8.2;338;351
2024-04-17 20:00;6.8;8;343;342
2024-04-17 20:10;6.7;6.9;343;346
2024-04-17 20:20;6.6;7.7;343;359
2024-04-17 20:30;6.5;6.2;343;5
2024-04-17 20:40;6.3;5.9;343;352
2024-04-17 20:50;6.2;5.7;343;353
2024-04-17 21:00;6.1;5.5;343;358
2024-04-17 21:10;6;5.7;344;0
2024-04-17 21:20;5.9;5.4;346;3
2024-04-17 21:30;5.8;5.5;347;358
2024-04-17 21:40;5.6;5.2;349;354
2024-04-17 21:50;5.5;5.3;350;1
2024-04-17 22:00;5.4;4.8;352;360
2024-04-17 22:10;5.4;5.2;353;15
2024-04-17 22:20;5.3;6.8;354;1
2024-04-17 22:30;5.3;8.1;355;349
2024-04-17 22:40;5.2;5.3;356;332
2024-04-17 22:50;5.2;3.9;357;335
2024-04-17 23:00;5.1;3.1;358;340
2024-04-17 23:10;5.1;4.5;299;344
2024-04-17 23:20;5;7.4;240;346
2024-04-17 23:30;5;6.4;181;350
2024-04-17 23:40;4.9;5.8;123;345
2024-04-17 23:50;4.9;5.2;64;348
2024-04-18 00:00;4.8;5.4;5;354
2024-04-18 00:10;5.1;6;7;355
2024-04-18 00:20;5.3;5.6;8;8
2024-04-18 00:30;5.5;6.4;9;15
2024-04-18 00:40;5.7;5.3;11;23
2024-04-18 00:50;6;4.8;12;23
2024-04-18 01:00;6.2;5.5;14;26
2024-04-18 01:10;6.2;6;16;33
2024-04-18 01:20;6.3;5.8;19;43
2024-04-18 01:30;6.3;5.5;21;42
2024-04-18 01:40;6.3;5.7;24;32
2024-04-18 01:50;6.3;5.6;26;30
2024-04-18 02:00;6.3;5.6;29;36
2024-04-18 02:10;6.4;4.4;29;45
2024-04-18 02:20;6.5;5.5;28;44
2024-04-18 02:30;6.5;5.8;28;14
2024-04-18 02:40;6.6;4.5;28;23
2024-04-18 02:50;6.7;5.3;28;24
2024-04-18 03:00;6.7;6.8;28;82
2024-04-18 03:10;6.8;6.7;30;61
2024-04-18 03:20;6.9;4.3;33;65
2024-04-18 03:30;7.1;4;36;51
2024-04-18 03:40;7.2;5;38;49
2024-04-18 03:50;7.3;4.2;41;41
2024-04-18 04:00;7.4;3.9;44;38
2024-04-18 04:10;7.1;3.6;46;33
2024-04-18 04:20;6.9;3.8;48;34
2024-04-18 04:30;6.6;3.7;50;32
2024-04-18 04:40;6.3;3.9;52;38
2024-04-18 04:50;6.7;4.3;61;40
2024-04-18 05:00;6.6;4.6;63;40
2024-04-18 05:10;6.7;4.5;62;42
2024-04-18 05:20;6.8;4.3;60;35
2024-04-18 05:30;6.9;4.2;59;31
2024-04-18 05:40;7;3.9;58;26
2024-04-18 05:50;7.1;4;56;22
2024-04-18 06:00;7.2;4.1;55;21
2024-04-18 06:10;7.1;4;53;19
2024-04-18 06:20;7;3.7;51;23
2024-04-18 06:30;6.9;3.7;49;20
2024-04-18 06:40;6.9;3.9;47;11
2024-04-18 06:50;6.8;7.6;46;20
2024-04-18 07:00;6.7;8.3;44;25
2024-04-18 07:10;6.7;6.1;39;21
2024-04-18 07:20;6.6;4;35;26
2024-04-18 07:30;6.6;3.1;31;18
2024-04-18 07:40;6.6;3.4;27;21
2024-04-18 07:50;6.6;3.9;13;18
2024-04-18 08:00;6;3.7;10;10
2024-04-18 08:10;6;4.3;9;358
2024-04-18 08:20;5.9;4.4;8;347
2024-04-18 08:30;5.9;3;6;330
2024-04-18 08:40;5.9;2.8;5;342
2024-04-18 08:50;5.9;2.6;4;353
2024-04-18 09:00;5.9;3.3;3;353
2024-04-18 09:10;5.8;4.4;62;358
2024-04-18 09:20;5.8;3;121;6
2024-04-18 09:30;5.8;3.1;180;353
2024-04-18 09:40;5.8;4.2;240;349
2024-04-18 09:50;5.8;4.1;299;344
2024-04-18 10:00;5.7;3.6;358;344
2024-04-18 10:10;5.7;5.3;356;357
2024-04-18 10:20;5.8;5.2;355;9
2024-04-18 10:30;5.8;5.3;353;6
2024-04-18 10:40;5.8;5.8;351;347
2024-04-18 10:50;5.8;5.3;350;348
2024-04-18 11:00;5.8;5.4;348;343
2024-04-18 11:10;5.9;5.3;347;339
2024-04-18 11:20;6;6.1;346;339
2024-04-18 11:30;6.1;5.6;344;337
2024-04-18 11:40;6.2;;343;
2024-04-18 11:50;6.3;4.8;342;336
2024-04-18 12:00;6.4;5.1;341;337
2024-04-18 12:10;6.3;5.2;339;331
2024-04-18 12:20;6.1;5.5;337;340
2024-04-18 12:30;5.9;5.4;336;335
2024-04-18 12:40;5.7;5.2;334;328
2024-04-18 12:50;5.5;5.6;332;334
2024-04-18 13:00;5.4;6;330;334
2024-04-18 13:10;5.3;6;328;331
2024-04-18 13:20;5.3;5.7;326;323
2024-04-18 13:30;5.3;5.5;324;317
2024-04-18 13:40;5.2;5.5;321;311
2024-04-18 13:50;5.2;5.1;316;308
2024-04-18 14:00;5.5;5.3;313;310
2024-04-18 14:10;5.5;5.3;312;304
2024-04-18 14:20;5.5;4.8;311;306
2024-04-18 14:30;5.5;4.4;311;299
2024-04-18 14:40;5.5;4.6;310;298
2024-04-18 14:50;5.5;4.6;309;308
2024-04-18 15:00;5.5;5.1;308;299
2024-04-18 15:10;5.6;5.7;306;301
2024-04-18 15:20;5.6;6;304;298
2024-04-18 15:30;5.7;5.8;302;301
2024-04-18 15:40;5.7;5.9;300;302
2024-04-18 15:50;5.8;6.3;298;298
2024-04-18 16:00;5.8;6;296;294
2024-04-18 16:10;5.8;5.6;294;292
2024-04-18 16:20;5.8;5.9;292;285
2024-04-18 16:30;5.8;6;290;286
2024-04-18 16:40;5.8;6.2;288;286
2024-04-18 16:50;5.9;6.2;286;285
2024-04-18 17:00;5.9;6.3;284;287
2024-04-18 17:10;5.8;6.2;281;277
2024-04-18 17:20;5.8;6.1;278;271
2024-04-18 17:30;5.8;5.6;275;264
2024-04-18 17:40;5.7;5.4;272;261
2024-04-18 17:50;5.7;6;269;261
2024-04-18 18:00;5.7;6.2;266;259
2024-04-18 18:10;5.9;6;263;258
2024-04-18 18:20;6.1;6;260;254
2024-04-18 18:30;6.2;6.2;257;254
2024-04-18 18:40;6.4;6.7;254;251
2024-04-18 18:50;6.6;;251;
2024-04-18 19:00;6.8;;247;
2024-04-18 19:10;6.9;;247;
2024-04-18 19:20;7.1;;246;
2024-04-18 19:30;7.2;;245;
2024-04-18 19:40;7.4;;244;
2024-04-18 19:50;7.5;;243;
2024-04-18 20:00;7.7;;242;
2024-04-18 20:10;7.8;;242;
2024-04-18 20:20;8;;241;
2024-04-18 20:30;8.2;;240;
2024-04-18 20:40;8.4;;240;
2024-04-18 20:50;8.5;;239;
2024-04-18 21:00;8.7;;239;
2024-04-18 21:10;9.2;;239;
2024-04-18 21:20;9.6;;239;
2024-04-18 21:30;10.1;;240;
2024-04-18 21:40;10.5;;240;
2024-04-18 21:50;11;;241;
2024-04-18 22:00;11.4;;241;
2024-04-18 22:10;11.5;;241;
2024-04-18 22:20;11.7;;241;
2024-04-18 22:30;11.8;;241;
2024-04-18 22:40;11.9;;241;
2024-04-18 22:50;12;;242;
2024-04-18 23:00;12.1;;242;
2024-04-18 23:10;12.4;;247;
2024-04-18 23:20;12.6;;252;
2024-04-18 23:30;12.9;;257;
2024-04-18 23:40;13.1;;262;
2024-04-18 23:50;13.4;;267;
2024-04-19 00:00;13.6;;272;
2024-04-19 00:10;13.7;;270;
2024-04-19 00:20;13.9;;268;
2024-04-19 00:30;14;;265;
2024-04-19 00:40;14.1;;263;
2024-04-19 00:50;14.2;;261;
2024-04-19 01:00;14.4;;258;
2024-04-19 01:10;14.4;;257;
2024-04-19 01:20;14.4;;256;
2024-04-19 01:30;14.4;;255;
2024-04-19 01:40;14.5;;254;
2024-04-19 01:50;14.5;;253;
2024-04-19 02:00;14.5;;252;
2024-04-19 02:10;14.6;;253;
2024-04-19 02:20;14.8;;254;
2024-04-19 02:30;14.9;;255;
2024-04-19 02:40;15;;256;
2024-04-19 02:50;15.1;;257;
2024-04-19 03:00;15.2;;258;
2024-04-19 03:10;15.1;;260;
2024-04-19 03:20;15;;263;
2024-04-19 03:30;14.8;;265;
2024-04-19 03:40;14.7;;267;
2024-04-19 03:50;14.6;;270;
2024-04-19 04:00;14.4;;272;
2024-04-19 04:10;14.3;;274;
2024-04-19 04:20;14.1;;276;
2024-04-19 04:30;14;;278;
2024-04-19 04:40;13.8;;281;
2024-04-19 04:50;13.7;;283;
2024-04-19 05:00;13.5;;285;
2024-04-19 05:10;13.5;;286;
2024-04-19 05:20;13.4;;288;
2024-04-19 05:30;13.3;;290;
2024-04-19 05:40;13.3;;291;
2024-04-19 05:50;13.2;;293;
2024-04-19 06:00;13.1;;294;
2024-04-19 06:10;13;;295;
2024-04-19 06:20;13;;296;
2024-04-19 06:30;12.9;;297;
2024-04-19 06:40;12.8;;297;
2024-04-19 06:50;12.8;;298;
2024-04-19 07:00;12.7;;299;
2024-04-19 07:10;12.6;;298;
2024-04-19 07:20;12.5;;298;
2024-04-19 07:30;12.4;;297;
2024-04-19 07:40;12.4;;297;
2024-04-19 07:50;12.3;;297;
2024-04-19 08:00;12.2;;296;
2024-04-19 08:10;12.2;;297;
2024-04-19 08:20;12.2;;298;
2024-04-19 08:30;12.2;;299;
2024-04-19 08:40;12.2;;300;
2024-04-19 08:50;12.3;;301;
2024-04-19 09:00;12.3;;302;
2024-04-19 09:10;12.1;;303;
2024-04-19 09:20;12;;304;
2024-04-19 09:30;11.9;;305;
2024-04-19 09:40;11.7;;306;
2024-04-19 09:50;11.6;;307;
2024-04-19 10:00;11.5;;307;
2024-04-19 10:10;11.5;;309;
2024-04-19 10:20;11.6;;310;
2024-04-19 10:30;11.7;;311;
2024-04-19 10:40;11.8;;312;
2024-04-19 10:50;11.8;;313;
2024-04-19 11:00;11.9;;314;
2024-04-19 11:10;11.9;;315;
2024-04-19 11:20;11.8;;315;
2024-04-19 11:30;11.8;;316;
2024-04-19 11:40;11.8;;316;
2024-04-19 11:50;11.8;;317;
2024-04-19 12:00;11.7;;317;
2024-04-19 12:10;11.7;;318;
2024-04-19 12:20;11.8;;320;
2024-04-19 12:30;11.8;;321;
2024-04-19 12:40;11.8;;322;
2024-04-19 12:50;11.8;;323;
2024-04-19 13:00;11.9;;325;
2024-04-19 13:10;11.7;;326;
2024-04-19 13:20;11.6;;327;
2024-04-19 13:30;11.4;;328;
2024-04-19 13:40;11.3;;329;
2024-04-19 13:50;11.1;;330;
2024-04-19 14:00;11;;331;
2024-04-19 14:10;11.3;;331;
2024-04-19 14:20;11.6;;331;
2024-04-19 14:30;11.9;;332;
2024-04-19 14:40;12.2;;332;
2024-04-19 14:50;12.5;;332;
2024-04-19 15:00;12.8;;332;
2024-04-19 15:10;12.9;;332;
2024-04-19 15:20;13.1;;332;
2024-04-19 15:30;13.3;;332;
2024-04-19 15:40;13.4;;332;
2024-04-19 15:50;13.6;;333;
2024-04-19 16:00;13.7;;333;
2024-04-19 16:10;13.8;;333;
2024-04-19 16:20;13.8;;333;
2024-04-19 16:30;13.9;;333;
2024-04-19 16:40;13.9;;333;
2024-04-19 16:50;13.9;;334;
2024-04-19 17:00;14;;334;
2024-04-19 17:10;14.1;;334;
2024-04-19 17:20;14.1;;334;
2024-04-19 17:30;14.2;;334;
2024-04-19 17:40;14.3;;334;
2024-04-19 17:50;14.4;;334;
2024-04-19 18:00;14.5;;334;
2024-04-19 18:10;14.5;;334;
2024-04-19 18:20;14.5;;335;
2024-04-19 18:30;14.4;;335;
2024-04-19 18:40;14.4;;336;
2024-04-19 18:50;14.4;;336;
2024-04-19 19:00;14.4;;337;
2024-04-19 19:10;14.4;;337;
2024-04-19 19:20;14.4;;337;
2024-04-19 19:30;14.4;;337;
2024-04-19 19:40;14.4;;337;
2024-04-19 19:50;14.4;;337;
2024-04-19 20:00;14.4;;337;
2024-04-19 20:10;14.3;;337;
2024-04-19 20:20;14.3;;337;
2024-04-19 20:30;14.2;;337;
2024-04-19 20:40;14.2;;336;
2024-04-19 20:50;14.1;;336;
2024-04-19 21:00;14.1;;336;
2024-04-19 21:10;14;;336;
2024-04-19 21:20;14;;336;
2024-04-19 21:30;14;;337;
2024-04-19 21:40;14;;337;
2024-04-19 21:50;14;;337;
2024-04-19 22:00;13.9;;337;
2024-04-19 22:10;14;;338;
2024-04-19 22:20;14;;338;
2024-04-19 22:30;14;;339;
2024-04-19 22:40;14;;339;
2024-04-19 22:50;14;;339;
2024-04-19 23:00;14;;340;
2024-04-19 23:10;14;;340;
2024-04-19 23:20;14;;341;
2024-04-19 23:30;14;;341;
2024-04-19 23:40;14;;341;
2024-04-19 23:50;14;;342;
2024-04-20 00:00;13.9;;342;
2024-04-20 00:10;13.9;;342;
2024-04-20 00:20;13.8;;342;
2024-04-20 00:30;13.7;;342;
2024-04-20 00:40;13.6;;342;
2024-04-20 00:50;13.6;;342;
2024-04-20 01:00;13.5;;342;
2024-04-20 01:10;13.4;;341;
2024-04-20 01:20;13.2;;340;
2024-04-20 01:30;13.1;;340;
2024-04-20 01:40;13;;339;
2024-04-20 01:50;12.9;;339;
2024-04-20 02:00;12.8;;338;
2024-04-20 02:10;12.8;;338;
2024-04-20 02:20;12.9;;338;
2024-04-20 02:30;12.9;;337;
2024-04-20 02:40;13;;337;
2024-04-20 02:50;13.1;;337;
2024-04-20 03:00;13.1;;337;
2024-04-20 03:10;13.2;;337;
2024-04-20 03:20;13.3;;338;
2024-04-20 03:30;13.4;;339;
2024-04-20 03:40;13.5;;339;
2024-04-20 03:50;13.7;;340;
2024-04-20 04:00;13.8;;341;
2024-04-20 04:10;13.9;;342;
2024-04-20 04:20;13.9;;343;
2024-04-20 04:30;14;;344;
2024-04-20 04:40;14.1;;345;
2024-04-20 04:50;14.2;;346;
2024-04-20 05:00;14.3;;347;
2024-04-20 05:10;14.2;;347;
2024-04-20 05:20;14.1;;348;
2024-04-20 05:30;14.1;;348;
2024-04-20 05:40;14;;348;
2024-04-20 05:50;13.9;;349;
2024-04-20 06:00;13.8;;349;
2024-04-20 06:10;13.7;;350;
2024-04-20 06:20;13.6;;350;
2024-04-20 06:30;13.5;;350;
2024-04-20 06:40;13.4;;351;
2024-04-20 06:50;13.3;;351;
2024-04-20 07:00;13.2;;351;
2024-04-20 07:10;13.1;;352;
2024-04-20 07:20;13;;352;
2024-04-20 07:30;12.9;;352;
2024-04-20 07:40;12.8;;352;
2024-04-20 07:50;12.7;;352;
2024-04-20 08:00;12.5;;353;
2024-04-20 08:10;12.4;;353;
2024-04-20 08:20;12.2;;353;
2024-04-20 08:30;12;;353;
2024-04-20 08:40;11.8;;353;
2024-04-20 08:50;11.6;;353;
2024-04-20 09:00;11.5;;353;
2024-04-20 09:10;11.3;;353;
2024-04-20 09:20;11.1;;353;
2024-04-20 09:30;10.9;;352;
2024-04-20 09:40;10.8;;352;
2024-04-20 09:50;10.6;;352;
2024-04-20 10:00;10.4;;351;
2024-04-20 10:10;10.3;;351;
2024-04-20 10:20;10.2;;350;
2024-04-20 10:30;10.1;;350;
2024-04-20 10:40;10;;349;
2024-04-20 10:50;9.8;;349;
2024-04-20 11:00;9.7;;348;
2024-04-20 11:10;9.7;;348;
2024-04-20 11:20;9.6;;348;
2024-04-20 11:30;9.5;;347;
2024-04-20 11:40;9.5;;347;
2024-04-20 11:50;9.4;;346;
2024-04-20 12:00;9.4;;346;
2024-04-20 12:10;9.4;;345;
2024-04-20 12:20;9.5;;345;
2024-04-20 12:30;9.5;;344;
2024-04-20 12:40;9.6;;343;
2024-04-20 12:50;9.6;;343;
2024-04-20 13:00;9.7;;342;
2024-04-20 13:10;9.7;;342;
2024-04-20 13:20;9.7;;341;
2024-04-20 13:30;9.8;;341;
2024-04-20 13:40;9.8;;340;
2024-04-20 13:50;9.8;;340;
2024-04-20 14:00;9.9;;339;
2024-04-20 14:10;9.8;;339;
2024-04-20 14:20;9.7;;339;
2024-04-20 14:30;9.5;;339;
2024-04-20 14:40;9.4;;339;
2024-04-20 14:50;9.2;;339;
2024-04-20 15:00;9.1;;339;
2024-04-20 15:10;9.3;;346;
2024-04-20 15:20;9.5;;344;
2024-04-20 15:30;9.6;;343;
2024-04-20 15:40;9.8;;342;
2024-04-20 15:50;10;;340;
2024-04-20 16:00;10.2;;339;
2024-04-20 16:10;10.5;;338;
2024-04-20 16:20;10.8;;337;
2024-04-20 16:30;11;;336;
2024-04-20 16:40;11.3;;335;
2024-04-20 16:50;11.6;;334;
2024-04-20 17:00;11.9;;333;
2024-04-20 17:10;11.9;;334;
2024-04-20 17:20;11.9;;336;
2024-04-20 17:30;11.9;;337;
2024-04-20 17:40;12;;338;
2024-04-20 17:50;12;;339;
2024-04-20 18:00;12;;341;
2024-04-20 18:10;11.9;;342;
2024-04-20 18:20;11.8;;344;
2024-04-20 18:30;11.7;;345;
2024-04-20 18:40;11.6;;347;
2024-04-20 18:50;11.5;;348;
2024-04-20 19:00;11.4;;350;
2024-04-20 19:10;11.4;;350;
2024-04-20 19:20;11.5;;351;
2024-04-20 19:30;11.5;;351;
2024-04-20 19:40;11.6;;351;
2024-04-20 19:50;11.7;;352;
2024-04-20 20:00;11.7;;352;
2024-04-20 20:10;11.8;;294;
2024-04-20 20:20;11.8;;236;
2024-04-20 20:30;11.9;;177;
2024-04-20 20:40;11.9;;119;
2024-04-20 20:50;11.9;;60;
2024-04-20 21:00;12;;2;
2024-04-20 21:10;12;;2;
2024-04-20 21:20;12;;3;
2024-04-20 21:30;12;;3;
2024-04-20 21:40;12;;3;
2024-04-20 21:50;12;;3;
2024-04-20 22:00;12;;3;
2024-04-20 22:10;11.9;;63;
2024-04-20 22:20;11.8;;122;
2024-04-20 22:30;11.7;;182;
2024-04-20 22:40;11.6;;241;
2024-04-20 22:50;11.5;;300;
2024-04-20 23:00;11.4;;360;
2024-04-20 23:10;11.3;;300;
2024-04-20 23:20;11.2;;240;
2024-04-20 23:30;11.1;;181;
2024-04-20 23:40;11;;121;
2024-04-20 23:50;10.9;;61;
2024-04-21 00:00;10.8;;2;
2024-04-21 00:10;10.8;;61;
2024-04-21 00:20;10.7;;120;
2024-04-21 00:30;10.7;;180;
2024-04-21 00:40;10.6;;239;
2024-04-21 00:50;10.5;;299;
2024-04-21 01:00;10.5;;358;
2024-04-21 01:10;10.4;;299;
2024-04-21 01:20;10.2;;239;
2024-04-21 01:30;10.1;;180;
2024-04-21 01:40;10;;121;
2024-04-21 01:50;9.9;;62;
2024-04-21 02:00;9.7;;2;
2024-04-21 02:10;9.7;;2;
2024-04-21 02:20;9.7;;2;
2024-04-21 02:30;9.6;;2;
2024-04-21 02:40;9.6;;2;
2024-04-21 02:50;9.6;;2;
2024-04-21 03:00;9.5;;2;
2024-04-21 03:10;9.5;;3;
2024-04-21 03:20;9.5;;3;
2024-04-21 03:30;9.5;;3;
2024-04-21 03:40;9.4;;3;
2024-04-21 03:50;9.4;;4;
2024-04-21 04:00;9.4;;4;
2024-04-21 04:10;9.4;;4;
2024-04-21 04:20;9.4;;5;
2024-04-21 04:30;9.4;;5;
2024-04-21 04:40;9.4;;5;
2024-04-21 04:50;9.4;;6;
2024-04-21 05:00;9.4;;6;
2024-04-21 05:10;9.4;;6;
2024-04-21 05:20;9.4;;5;
2024-04-21 05:30;9.4;;5;
2024-04-21 05:40;9.4;;5;
2024-04-21 05:50;9.4;;5;
2024-04-21 06:00;9.4;;5;
2024-04-21 06:10;9.4;;5;
2024-04-21 06:20;9.5;;5;
2024-04-21 06:30;9.6;;5;
2024-04-21 06:40;9.7;;6;
2024-04-21 06:50;9.8;;6;
2024-04-21 07:00;9.9;;6;
2024-04-21 07:10;9.9;;7;
2024-04-21 07:20;9.9;;7;
2024-04-21 07:30;9.9;;8;
2024-04-21 07:40;9.9;;9;
2024-04-21 07:50;9.9;;10;
2024-04-21 08:00;9.9;;10;
2024-04-21 08:10;9.9;;11;
2024-04-21 08:20;10;;12;
2024-04-21 08:30;10.1;;13;
2024-04-21 08:40;10.2;;13;
2024-04-21 08:50;10.3;;14;
2024-04-21 09:00;10.4;;15;
2024-04-21 09:10;10.4;;16;
2024-04-21 09:20;10.3;;16;
2024-04-21 09:30;10.3;;17;
2024-04-21 09:40;10.3;;17;
2024-04-21 09:50;10.3;;18;
2024-04-21 10:00;10.3;;19;
2024-04-21 10:10;10.3;;20;
2024-04-21 10:20;10.3;;20;
2024-04-21 10:30;10.3;;21;
2024-04-21 10:40;10.3;;22;
2024-04-21 10:50;10.3;;23;
2024-04-21 11:00;10.3;;24;
2024-04-21 11:10;10.2;;25;
2024-04-21 11:20;10.1;;26;
2024-04-21 11:30;10;;27;
2024-04-21 11:40;9.9;;28;
2024-04-21 11:50;9.9;;29;
2024-04-21 12:00;9.8;;30;
2024-04-21 12:10;9.8;;31;
2024-04-21 12:20;9.8;;32;
2024-04-21 12:30;9.8;;33;
2024-04-21 12:40;9.9;;34;
2024-04-21 12:50;9.9;;35;
2024-04-21 13:00;9.9;;36;
2024-04-21 13:10;9.7;;36;
2024-04-21 13:20;9.5;;36;
2024-04-21 13:30;9.2;;36;
2024-04-21 13:40;9;;36;
2024-04-21 13:50;8.8;;36;
2024-04-21 14:00;8.6;;36;
2024-04-21 14:10;8.4;;36;
2024-04-21 14:20;8.3;;36;
2024-04-21 14:30;8.2;;35;
2024-04-21 14:40;8.1;;35;
2024-04-21 14:50;7.9;;34;
2024-04-21 15:00;7.8;;34;
2024-04-21 15:10;7.8;;33;
2024-04-21 15:20;7.8;;33;
2024-04-21 15:30;7.8;;32;
2024-04-21 15:40;7.8;;32;
2024-04-21 15:50;7.8;;31;
2024-04-21 16:00;7.8;;30;
2024-04-21 16:10;8;;30;
2024-04-21 16:20;8.1;;29;
2024-04-21 16:30;8.3;;28;
2024-04-21 16:40;8.4;;27;
2024-04-21 16:50;8.6;;26;
2024-04-21 17:00;8.7;;26;
2024-04-21 17:10;8.9;;25;
2024-04-21 17:20;9;;25;
2024-04-21 17:30;9.2;;25;
2024-04-21 17:40;9.3;;25;
2024-04-21 17:50;9.5;;25;
2024-04-21 18:00;9.6;;25;
2024-04-21 18:10;9.7;;26;
2024-04-21 18:20;9.8;;26;
2024-04-21 18:30;9.9;;27;
2024-04-21 18:40;10;;27;
2024-04-21 18:50;10.1;;28;
2024-04-21 19:00;10.2;;28;
2024-04-21 19:10;10.3;;29;
2024-04-21 19:20;10.5;;30;
2024-04-21 19:30;10.6;;31;
2024-04-21 19:40;10.7;;32;
2024-04-21 19:50;10.8;;32;
2024-04-21 20:00;10.9;;33;
2024-04-21 20:10;10.8;;34;
2024-04-21 20:20;10.8;;34;
2024-04-21 20:30;10.7;;35;
2024-04-21 20:40;10.6;;35;
2024-04-21 20:50;10.6;;36;
2024-04-21 21:00;10.5;;36;
2024-04-21 21:10;10.5;;37;
2024-04-21 21:20;10.4;;37;
2024-04-21 21:30;10.3;;38;
2024-04-21 21:40;10.3;;38;
2024-04-21 21:50;10.2;;39;
2024-04-21 22:00;10.1;;39;
2024-04-21 22:10;10.1;;40;
2024-04-21 22:20;10;;40;
2024-04-21 22:30;10;;41;
2024-04-21 22:40;9.9;;41;
2024-04-21 22:50;9.8;;42;
2024-04-21 23:00;9.8;;42;
2024-04-21 23:10;9.7;;43;
2024-04-21 23:20;9.7;;43;
2024-04-21 23:30;9.6;;43;
2024-04-21 23:40;9.6;;44;
2024-04-21 23:50;9.5;;44;
2024-04-22 00:00;9.5;;45;
2024-04-22 00:10;9.4;;45;
2024-04-22 00:20;9.4;;46;
2024-04-22 00:30;9.3;;46;
2024-04-22 00:40;9.3;;46;
2024-04-22 00:50;9.2;;47;
2024-04-22 01:00;9.2;;47;
2024-04-22 01:10;9.1;;48;
2024-04-22 01:20;9.1;;48;
2024-04-22 01:30;9;;48;
2024-04-22 01:40;9;;49;
2024-04-22 01:50;8.9;;49;
2024-04-22 02:00;8.9;;50;
2024-04-22 02:10;8.8;;49;
2024-04-22 02:20;8.8;;49;
2024-04-22 02:30;8.8;;48;
2024-04-22 02:40;8.8;;47;
2024-04-22 02:50;8.7;;47;
2024-04-22 03:00;8.7;;46;
2024-04-22 03:10;8.7;;46;
2024-04-22 03:20;8.7;;45;
2024-04-22 03:30;8.7;;45;
2024-04-22 03:40;8.6;;44;
2024-04-22 03:50;8.6;;43;
2024-04-22 04:00;8.6;;43;
2024-04-22 04:10;8.6;;42;
2024-04-22 04:20;8.6;;42;
2024-04-22 04:30;8.5;;41;
2024-04-22 04:40;8.5;;41;
2024-04-22 04:50;8.5;;40;
2024-04-22 05:00;8.5;;39;
2024-04-22 05:10;8.5;;40;
2024-04-22 05:20;8.5;;40;
2024-04-22 05:30;8.5;;40;
2024-04-22 05:40;8.5;;40;
2024-04-22 05:50;8.5;;41;
2024-04-22 06:00;8.5;;41;
2024-04-22 06:10;8.5;;41;
2024-04-22 06:20;8.5;;41;
2024-04-22 06:30;8.5;;41;
2024-04-22 06:40;8.6;;42;
2024-04-22 06:50;8.6;;42;
2024-04-22 07:00;8.6;;42;
2024-04-22 07:10;8.6;;42;
2024-04-22 07:20;8.6;;42;
2024-04-22 07:30;8.6;;43;
2024-04-22 07:40;8.6;;43;
2024-04-22 07:50;8.6;;43;
2024-04-22 08:00;8.6;;43;